Regional Weather Roundup
Issued by NWS

Home | Current Version | Previous Version | Text Only | Print | Product List | Glossary Off
Versions: 1 2 3 4 5 6 7 8 9 10 11 12 13 14 15 16 17 18 19 20 21 22 23 24 25 26 27 28 29 30 31 32 33 34 35 36 37 38 39 40 41 42 43 44 45 46 47 48 49 50

000
ASUS43 KOAX 130002
RWRNE

WEATHER ROUNDUP FOR NEBRASKA
NATIONAL WEATHER SERVICE OMAHA NE
700 PM CDT SAT JUL 12 2014

NOTES: SATELLITE DATA IS BEING USED TO AUGMENT CLOUD COVER ABOVE
       12000 FEET.
       "FAIR" INDICATES FEW OR NO CLOUDS BELOW 12,000 FEET WITH NO
       SIGNIFICANT WEATHER AND/OR OBSTRUCTIONS TO VISIBILITY.

  * THESE STATIONS DO NOT REPORT WEATHER SUCH AS RAIN...SNOW OR FOG.

NEZ001>004-019>022-054>056-130100-
NEBRASKA PANHANDLE

CITY           SKY/WX    TMP DP  RH WIND       PRES   REMARKS
SCOTTSBLUFF    SUNNY     82  62  50 SW3       30.18F
6HR MIN TEMP:  71; 6HR MAX TEMP:  84;

ALLIANCE       SUNNY     82  58  43 VRB6      30.18S
6HR MIN TEMP:  73; 6HR MAX TEMP:  83;

CHADRON        MOSUNNY   84  58  40 N20       30.14R
6HR MIN TEMP:  77; 6HR MAX TEMP:  86;

KIMBALL        PTSUNNY   78  55  44 NE13      30.24R
SIDNEY         MOSUNNY   82  59  45 N12G17    30.21S
6HR MIN TEMP:  75; 6HR MAX TEMP:  84;

$$

NEZ057>060-069>072-079>082-130100-
SOUTHWEST NEBRASKA

CITY           SKY/WX    TMP DP  RH WIND       PRES   REMARKS
NORTH PLATTE   MOSUNNY   83  63  50 NE8       30.09S
6HR MIN TEMP:  77; 6HR MAX TEMP:  84;

IMPERIAL       MOSUNNY   83  61  47 N10       30.12S
6HR MIN TEMP:  78; 6HR MAX TEMP:  86;

LEXINGTON      MOSUNNY   82  69  65 N7        30.07S
MCCOOK         SUNNY     83  68  60 NE16      30.06F
6HR MIN TEMP:  82; 6HR MAX TEMP:  87;

OGALLALA       PTSUNNY   81  61  50 NE7       30.13S
$$

NEZ005>010-023>029-035>040-094-130100-
NORTH CENTRAL NEBRASKA

CITY           SKY/WX    TMP DP  RH WIND       PRES   REMARKS
VALENTINE      MOSUNNY   83  63  50 NE10      30.11S
6HR MIN TEMP:  72; 6HR MAX TEMP:  84;

AINSWORTH      SUNNY     80  63  55 N10       30.10S
BROKEN BOW     SUNNY     79  68  69 N5        30.08S
6HR MIN TEMP:  72; 6HR MAX TEMP:  82;

O`NEILL        SUNNY     80  61  53 CALM      30.07S
ORD            SUNNY     79  67  66 CALM      30.05R
6HR MIN TEMP:  70; 6HR MAX TEMP:  80;

THEDFORD       SUNNY     83  60  45 N12       30.12S
$$

NEZ041-046>049-061>064-073>077-083>087-130100-
SOUTH CENTRAL NEBRASKA

CITY           SKY/WX    TMP DP  RH WIND       PRES   REMARKS
GRAND ISLAND   SUNNY     80  68  66 NE13      30.03F
6HR MIN TEMP:  77; 6HR MAX TEMP:  82;

AURORA         SUNNY     81  71  71 N8        30.01F
HASTINGS       MOSUNNY   80  67  64 N10       30.02F
6HR MIN TEMP:  78; 6HR MAX TEMP:  85;

HEBRON         SUNNY     86  73  64 N15G21    29.96S HX  93
HOLDREGE       PTSUNNY   77  67  71 N9        30.05F
KEARNEY *      MOSUNNY   79  68  69 N14       30.05S
YORK           MOSUNNY   79  72  78 N12       30.00F
$$

NEZ011>018-030>034-042>045-130100-
NORTHEAST NEBRASKA

CITY           SKY/WX    TMP DP  RH WIND       PRES   REMARKS
NORFOLK        MOSUNNY   78  66  66 NE7       30.03S
6HR MIN TEMP:  72; 6HR MAX TEMP:  79; 6HR PCP: TRACE;

ALBION         SUNNY     77  65  64 E6        30.05S
BLAIR          MOSUNNY   79  68  69 N7        29.97F
FREMONT        MOSUNNY   80  68  67 N8        29.99F
TEKAMAH        MOSUNNY   79  69  71 N12       29.98S
6HR MIN TEMP:  75; 6HR MAX TEMP:  80;

WAYNE          MOSUNNY   78  68  71 N5        30.03S
$$

NEZ050>053-065>068-078-088>093-130100-
SOUTHEAST NEBRASKA

CITY           SKY/WX    TMP DP  RH WIND       PRES   REMARKS
LINCOLN        SUNNY     82  70  66 N14       29.98S
6HR MIN TEMP:  81; 6HR MAX TEMP:  92;

OMAHA EPPLEY   PTSUNNY   81  70  69 N10       29.95F
6HR MIN TEMP:  80; 6HR MAX TEMP:  90;

BEATRICE       SUNNY     85  74  71 N13       29.94S HX  92
FALLS CITY     MOSUNNY   92  70  48 SW10      29.89F HX  97
6HR MIN TEMP:  90; 6HR MAX TEMP:  97;

NEBRASKA CITY  SUNNY     83  73  73 N12       29.94R
PLATTSMOUTH    MOSUNNY   81  71  71 N7        29.96S
$$

NEZ044-045-051>053-067-130100-
OMAHA AREA

CITY           SKY/WX    TMP DP  RH WIND       PRES   REMARKS
OMAHA EPPLEY   PTSUNNY   81  70  69 N10       29.95F
6HR MIN TEMP:  80; 6HR MAX TEMP:  90;

BLAIR          MOSUNNY   79  68  69 N7        29.97F
FREMONT        MOSUNNY   80  68  67 N8        29.99F
MILLARD        MOSUNNY   81  71  72 CALM      29.95F
PLATTSMOUTH    MOSUNNY   81  71  71 N7        29.96S
WAHOO          FAIR      82  69  65 N8        29.97F
$$


USA.gov is the U.S. government's official web portal to all federal, state and local government web resources and services.